• In Deutschland
  • Länderverzeichnis
  • Für 7 Tage
  • Wassertemperatur
  • Satellitenkarten
  • Wetterkarte
  • Widgets
  • user-avatar
    Anmelden

    Stündliche Wetter Gera

    Heute, 26 April, Donnerstag

    Zeit Temperatur Niederschläge Wind Luftdruck Luftfeuchtigkeit
    00:00 +9°C° 0,1 mm 2 m/S 742 mmHg 89%
    01:00 +9°C° 0,1 mm 2 m/S 742 mmHg 89%
    02:00 +9°C° 0,1 mm 2 m/S 742 mmHg 90%
    03:00 +8°C° 0,1 mm 3 m/S 742 mmHg 91%
    04:00 +7°C° 0,1 mm 3 m/S 742 mmHg 92%
    05:00 +7°C° 0 mm 4 m/S 742 mmHg 89%
    06:00 +7°C° 0 mm 5 m/S 742 mmHg 86%
    07:00 +7°C° 0 mm 6 m/S 743 mmHg 83%
    08:00 +8°C° 0 mm 6 m/S 743 mmHg 77%
    09:00 +9°C° 0 mm 7 m/S 743 mmHg 72%
    10:00 +10°C° 0 mm 8 m/S 743 mmHg 66%
    11:00 +10°C° 0,1 mm 8 m/S 743 mmHg 63%
    12:00 +11°C° 0,1 mm 8 m/S 743 mmHg 61%
    13:00 +11°C° 0,1 mm 8 m/S 743 mmHg 58%
    14:00 +12°C° 0,2 mm 7 m/S 743 mmHg 57%
    15:00 +12°C° 0,2 mm 7 m/S 743 mmHg 57%
    16:00 +13°C° 0,2 mm 6 m/S 743 mmHg 57%
    17:00 +12°C° 0,1 mm 5 m/S 744 mmHg 62%
    18:00 +11°C° 0,1 mm 4 m/S 744 mmHg 68%
    19:00 +10°C° 0,1 mm 3 m/S 744 mmHg 74%
    20:00 +9°C° 0 mm 3 m/S 744 mmHg 77%
    21:00 +8°C° 0 mm 2 m/S 745 mmHg 81%
    22:00 +6°C° 0 mm 2 m/S 745 mmHg 84%
    23:00 +6°C° 0 mm 2 m/S 745 mmHg 85%

    Morgen, 27 April, Freitag

    Zeit Temperatur Niederschläge Wind Luftdruck Luftfeuchtigkeit
    00:00 +6°C° 0 mm 2 m/S 745 mmHg 86%
    01:00 +5°C° 0 mm 2 m/S 745 mmHg 87%
    02:00 +5°C° 0 mm 2 m/S 745 mmHg 87%
    03:00 +5°C° 0 mm 2 m/S 745 mmHg 88%
    04:00 +5°C° 0 mm 2 m/S 745 mmHg 88%
    05:00 +6°C° 0 mm 2 m/S 744 mmHg 84%
    06:00 +7°C° 0 mm 2 m/S 744 mmHg 80%
    07:00 +8°C° 0 mm 2 m/S 744 mmHg 76%
    08:00 +10°C° 0 mm 2 m/S 744 mmHg 68%
    09:00 +13°C° 0 mm 2 m/S 743 mmHg 60%
    10:00 +14°C° 0 mm 3 m/S 743 mmHg 52%
    11:00 +16°C° 0 mm 3 m/S 743 mmHg 49%
    12:00 +17°C° 0 mm 3 m/S 742 mmHg 46%
    13:00 +18°C° 0 mm 3 m/S 741 mmHg 43%
    14:00 +18°C° 0 mm 3 m/S 741 mmHg 43%
    15:00 +19°C° 0 mm 3 m/S 740 mmHg 43%
    16:00 +19°C° 0 mm 3 m/S 739 mmHg 44%
    17:00 +18°C° 0 mm 2 m/S 739 mmHg 51%
    18:00 +16°C° 0 mm 2 m/S 739 mmHg 58%
    19:00 +15°C° 0 mm 2 m/S 738 mmHg 66%
    20:00 +14°C° 0 mm 2 m/S 739 mmHg 68%
    21:00 +13°C° 0 mm 2 m/S 739 mmHg 71%
    22:00 +12°C° 0 mm 2 m/S 739 mmHg 73%
    23:00 +11°C° 0 mm 3 m/S 739 mmHg 76%

    übermorgen, 28 April, Samstag

    Zeit Temperatur Niederschläge Wind Luftdruck Luftfeuchtigkeit
    00:00 +11°C° 0 mm 3 m/S 739 mmHg 79%
    01:00 +11°C° 0 mm 3 m/S 739 mmHg 81%
    02:00 +11°C° 0 mm 4 m/S 739 mmHg 82%
    03:00 +10°C° 0 mm 4 m/S 740 mmHg 83%
    04:00 +10°C° 0 mm 4 m/S 740 mmHg 84%
    05:00 +10°C° 0 mm 5 m/S 740 mmHg 82%
    06:00 +10°C° 0 mm 5 m/S 741 mmHg 80%
    07:00 +11°C° 0 mm 6 m/S 741 mmHg 78%
    08:00 +13°C° 0 mm 6 m/S 741 mmHg 71%
    09:00 +13°C° 0 mm 6 m/S 742 mmHg 64%
    10:00 +14°C° 0 mm 6 m/S 742 mmHg 57%
    11:00 +15°C° 0 mm 6 m/S 742 mmHg 56%
    12:00 +16°C° 0 mm 6 m/S 742 mmHg 54%
    13:00 +16°C° 0 mm 5 m/S 742 mmHg 52%
    14:00 +16°C° 0 mm 5 m/S 742 mmHg 53%
    15:00 +17°C° 0 mm 4 m/S 742 mmHg 54%
    16:00 +17°C° 0 mm 4 m/S 742 mmHg 54%
    17:00 +16°C° 0 mm 3 m/S 742 mmHg 62%
    18:00 +15°C° 0 mm 2 m/S 742 mmHg 69%
    19:00 +13°C° 0 mm 2 m/S 742 mmHg 76%
    20:00 +12°C° 0 mm 2 m/S 743 mmHg 81%
    21:00 +10°C° 0 mm 2 m/S 743 mmHg 86%
    22:00 +10°C° 0 mm 1 m/S 743 mmHg 91%
    23:00 +9°C° 0 mm 2 m/S 743 mmHg 91%

    29 April, Sonntag

    Zeit Temperatur Niederschläge Wind Luftdruck Luftfeuchtigkeit
    00:00 +9°C° 0 mm 2 m/S 743 mmHg 92%
    01:00 +8°C° 0 mm 2 m/S 743 mmHg 92%
    02:00 +8°C° 0 mm 2 m/S 742 mmHg 93%
    03:00 +8°C° 0 mm 2 m/S 742 mmHg 94%
    04:00 +8°C° 0 mm 3 m/S 741 mmHg 94%
    05:00 +9°C° 0,1 mm 3 m/S 741 mmHg 93%
    06:00 +9°C° 0,1 mm 3 m/S 741 mmHg 92%
    07:00 +10°C° 0,1 mm 4 m/S 740 mmHg 91%
    08:00 +12°C° 0 mm 4 m/S 740 mmHg 86%
    09:00 +14°C° 0 mm 4 m/S 739 mmHg 80%
    10:00 +16°C° 0 mm 5 m/S 739 mmHg 75%
    11:00 +17°C° 0 mm 5 m/S 738 mmHg 72%
    12:00 +20°C° 0 mm 4 m/S 738 mmHg 68%
    13:00 +21°C° 0 mm 4 m/S 737 mmHg 65%
    14:00 +22°C° 0 mm 4 m/S 737 mmHg 64%
    15:00 +22°C° 0 mm 4 m/S 736 mmHg 64%
    16:00 +23°C° 0 mm 4 m/S 735 mmHg 64%
    17:00 +21°C° 0 mm 4 m/S 735 mmHg 70%
    18:00 +20°C° 0 mm 3 m/S 734 mmHg 77%
    19:00 +19°C° 0 mm 3 m/S 733 mmHg 83%
    20:00 +18°C° 0 mm 3 m/S 733 mmHg 86%
    21:00 +17°C° 0 mm 2 m/S 733 mmHg 88%
    22:00 +16°C° 0 mm 2 m/S 733 mmHg 90%
    23:00 +16°C° 0,1 mm 2 m/S 732 mmHg 91%

    30 April, Montag

    Zeit Temperatur Niederschläge Wind Luftdruck Luftfeuchtigkeit
    00:00 +15°C° 0,1 mm 2 m/S 732 mmHg 92%
    01:00 +15°C° 0,1 mm 2 m/S 732 mmHg 93%
    02:00 +14°C° 0,6 mm 3 m/S 732 mmHg 93%
    03:00 +13°C° 0,6 mm 3 m/S 733 mmHg 94%
    04:00 +13°C° 0,6 mm 4 m/S 733 mmHg 94%
    05:00 +13°C° 0,2 mm 5 m/S 733 mmHg 92%
    06:00 +11°C° 0,2 mm 6 m/S 734 mmHg 90%
    07:00 +11°C° 0,2 mm 7 m/S 735 mmHg 88%
    08:00 +11°C° 0,1 mm 7 m/S 735 mmHg 87%
    09:00 +11°C° 0,1 mm 6 m/S 736 mmHg 85%
    10:00 +11°C° 0,1 mm 6 m/S 737 mmHg 83%
    11:00 +11°C° 0,2 mm 6 m/S 738 mmHg 81%
    12:00 +11°C° 0,2 mm 6 m/S 738 mmHg 79%
    13:00 +11°C° 0,2 mm 6 m/S 739 mmHg 76%
    14:00 +11°C° 0 mm 6 m/S 739 mmHg 71%
    15:00 +12°C° 0 mm 7 m/S 739 mmHg 66%
    16:00 +12°C° 0 mm 7 m/S 739 mmHg 61%
    17:00 +11°C° 0 mm 6 m/S 740 mmHg 64%
    18:00 +12°C° 0 mm 4 m/S 740 mmHg 67%
    19:00 +11°C° 0 mm 3 m/S 740 mmHg 70%
    20:00 +10°C° 0 mm 3 m/S 741 mmHg 71%
    21:00 +9°C° 0 mm 3 m/S 741 mmHg 72%
    22:00 +8°C° 0 mm 3 m/S 742 mmHg 74%
    23:00 +7°C° 0 mm 4 m/S 742 mmHg 74%

    1 Mai, Dienstag

    Zeit Temperatur Niederschläge Wind Luftdruck Luftfeuchtigkeit
    00:00 +7°C° 0 mm 4 m/S 742 mmHg 74%
    01:00 +6°C° 0 mm 4 m/S 742 mmHg 74%
    02:00 +6°C° 0 mm 4 m/S 743 mmHg 75%
    03:00 +6°C° 0 mm 4 m/S 743 mmHg 76%
    04:00 +7°C° 0 mm 3 m/S 743 mmHg 76%
    05:00 +7°C° 0 mm 4 m/S 743 mmHg 75%
    06:00 +8°C° 0 mm 4 m/S 744 mmHg 74%
    07:00 +10°C° 0 mm 4 m/S 744 mmHg 72%
    08:00 +12°C° 0 mm 4 m/S 744 mmHg 67%
    09:00 +13°C° 0 mm 4 m/S 744 mmHg 62%
    10:00 +15°C° 0 mm 4 m/S 744 mmHg 57%
    11:00 +17°C° 0,1 mm 4 m/S 744 mmHg 54%
    12:00 +18°C° 0,1 mm 4 m/S 743 mmHg 52%
    13:00 +19°C° 0,1 mm 4 m/S 743 mmHg 49%
    14:00 +19°C° 0,3 mm 3 m/S 743 mmHg 51%
    15:00 +18°C° 0,3 mm 3 m/S 743 mmHg 53%
    16:00 +18°C° 0,3 mm 2 m/S 742 mmHg 55%
    17:00 +17°C° 0,2 mm 2 m/S 742 mmHg 62%
    18:00 +15°C° 0,2 mm 2 m/S 742 mmHg 69%
    19:00 +14°C° 0,2 mm 2 m/S 742 mmHg 76%
    20:00 +13°C° 0 mm 2 m/S 743 mmHg 78%
    21:00 +12°C° 0 mm 2 m/S 743 mmHg 79%
    22:00 +10°C° 0 mm 2 m/S 744 mmHg 81%
    23:00 +9°C° 0 mm 2 m/S 744 mmHg 81%
    Mehr zeigen